Weather History for Ellington Field, TX

Change the Weather History Date:

Sunday, January 6, 2013

  Actual Average Record
Temperature  
Mean Temperature 50 °F -  
Max Temperature 59 °F 62 °F 75 °F (2008)
Min Temperature 42 °F 44 °F 28 °F (2014)
Degree Days  
Heating Degree Days 14    
Moisture  
Dew Point 41 °F    
Average Humidity 76    
Maximum Humidity 100    
Minimum Humidity 51    
Precipitation  
Precipitation 0.00 in - - ()
Sea Level Pressure  
Sea Level Pressure 30.30 in    
Wind  
Wind Speed 9 mph (North)    
Max Wind Speed 15 mph    
Max Gust Speed -    
Visibility 8 miles    
Events      
Averages and records for this station are not official NWS values.
T = Trace of Precipitation, MM = Missing Value Source: NWS Daily Summary

Daily Weather History Graph

Daily Weather History Graph

Search for Another Location

Airport:

Trip Planner

Search our weather history database for the weather conditions in past years. The results will help you decide how hot, cold, wet, or windy it might be!

Date:

Astronomy

Jan. 06, 2013 Rise Set
Actual Time 7:16 AM CST 5:36 PM CST
Civil Twilight 6:50 AM CST 6:02 PM CST
Nautical Twilight 6:21 AM CST 6:32 PM CST
Astronomical Twilight 5:52 AM CST 7:01 PM CST
Moon 1:41 AM CST (1/6) 12:56 PM CST (1/6)
Length of Visible Light 11h 12m
Length of Day
10h 20m
Waning Crescent, 33% of the Moon is Illuminated
Jan 6
Waning Crescent
Jan 11
New
Jan 18
First Quarter
Jan 26
Full
Feb 3
Last Quarter

Hourly Weather History & Observations

Time (CST) Temp. Windchill Dew Point Humidity Pressure Visibility Wind Dir Wind Speed Gust Speed Precip Events Conditions
12:50 AM 46.4 °F 41.9 °F 46.4 °F 100% 30.28 in 7.0 mi NNW 9.2 mph - N/A   Overcast
1:50 AM 46.4 °F 41.9 °F 46.4 °F 100% 30.27 in 7.0 mi NNW 9.2 mph - N/A   Overcast
2:50 AM 46.4 °F 41.9 °F 46.4 °F 100% 30.28 in 3.0 mi NNW 9.2 mph - N/A   Overcast
3:50 AM 46.4 °F 41.9 °F 46.4 °F 100% 30.28 in 2.0 mi North 9.2 mph - N/A   Overcast
5:50 AM 44.6 °F 38.8 °F 44.6 °F 100% 30.28 in 7.0 mi NNW 11.5 mph - N/A   Overcast
6:50 AM 44.6 °F 38.8 °F 44.6 °F 100% 30.29 in 7.0 mi North 11.5 mph - N/A   Overcast
7:50 AM 42.8 °F 37.5 °F 42.8 °F 100% 30.32 in 8.0 mi North 9.2 mph - N/A   Mostly Cloudy
8:15 AM 44.6 °F 39.7 °F 42.8 °F 93% 30.32 in 7.0 mi North 9.2 mph - N/A   Mostly Cloudy
8:50 AM 44.6 °F 39.2 °F 42.8 °F 93% 30.24 in 7.0 mi North 10.4 mph - N/A   Mostly Cloudy
9:50 AM 46.4 °F 40.7 °F 42.8 °F 87% 30.36 in 8.0 mi North 12.7 mph - N/A   Mostly Cloudy
10:20 AM 46.4 °F 42.4 °F 42.8 °F 87% 30.37 in 8.0 mi North 8.1 mph - N/A   Scattered Clouds
10:50 AM 48.2 °F - 42.8 °F 82% 30.36 in 10.0 mi North 11.5 mph - N/A   Scattered Clouds
11:50 AM 50.0 °F - 39.2 °F 66% 30.34 in 10.0 mi NNE 11.5 mph - N/A   Scattered Clouds
12:50 PM 53.6 °F - 39.2 °F 58% 30.30 in 10.0 mi North 15.0 mph - N/A   Scattered Clouds
1:50 PM 55.4 °F - 39.2 °F 54% 30.26 in 10.0 mi NNW 11.5 mph - N/A   Partly Cloudy
2:50 PM 57.2 °F - 41.0 °F 55% 30.26 in 10.0 mi North 11.5 mph - N/A   Partly Cloudy
3:50 PM 59.0 °F - 41.0 °F 51% 30.26 in 10.0 mi NNW 11.5 mph - N/A   Partly Cloudy
4:50 PM 57.2 °F - 39.2 °F 51% 30.26 in 10.0 mi NNW 10.4 mph - N/A   Partly Cloudy
5:50 PM 55.4 °F - 37.4 °F 51% 30.28 in 10.0 mi NNW 6.9 mph - N/A   Partly Cloudy
6:50 PM 53.6 °F - 37.4 °F 54% 30.30 in 10.0 mi NNW 5.8 mph - N/A   Partly Cloudy
7:50 PM 51.8 °F - 37.4 °F 58% 30.31 in 10.0 mi NNW 4.6 mph - N/A   Partly Cloudy
8:50 PM 51.8 °F - 37.4 °F 58% 30.32 in 10.0 mi Calm Calm - N/A   Partly Cloudy
9:50 PM 50.0 °F - 37.4 °F 62% 30.34 in 10.0 mi Calm Calm - N/A   Clear
10:50 PM 48.2 °F - 39.2 °F 71% 30.34 in 10.0 mi Calm Calm - N/A   Clear
11:50 PM 48.2 °F - 39.2 °F 71% 30.32 in 10.0 mi North 5.8 mph - N/A   Clear